Home > Weather > Gifhorn > Past weeks

Flag for Germany Past Weather in Gifhorn, Lower Saxony, Germany — Yesterday and Last 2 Weeks

Now
73 °F

Scattered clouds.


Feels Like: 77 °F
Forecast: 60 / 71 °F
Wind: 7 mph from West

Location: Braunschweig Wolfsburg

Current Time: Jul 27, 2016 at 9:24:42 PM

Latest Report: Jul 27, 2016 at 8:50 PM


Visibility: N/A

Pressure: 29.98 "Hg

Humidity: 57%

Dew Point: 57 °F

Location of GifhornLocation

Past Weather in Gifhorn — Graph

°F

Gifhorn Temperature Yesterday

Maximum temperature yesterday: 79 °F (at 3:50 PM)
Minimum temperature yesterday: 64 °F (at 6:50 AM)
Average temperature yesterday: 73 °F

High & Low Weather Summary for the Past Weeks

 TemperatureHumidityPressure
High90 °F (Jul 20, 6:20 PM)100% (Jul 26, 6:50 AM)30.24 "Hg (Jul 26, 6:50 AM)
Low55 °F (Jul 14, 6:50 AM)31% (Jul 20, 3:50 PM)29.86 "Hg (Jul 12, 7:20 PM)
Average72 °F62%30.05 "Hg
* Reported Jul 12 7:20 PM — Jul 27 7:50 PM, Gifhorn, Weather by CustomWeather, © 2016

Note: Actual official high and low records may vary slightly from our data, if they occured in-between our weather recording intervals... More about our weather records

Advertising

Gifhorn Weather History for the Previous 24 Hours

Scroll right to see more
 ConditionsComfort  
Time TempWeatherWind HumidityBarometerVisibility
7:50 PM
Wed, Jul 27
75 °FPassing clouds.7 mph54%29.95 "HgN/A
7:20 PM75 °FPassing clouds.9 mph54%29.95 "HgN/A
6:50 PM77 °FPassing clouds.10 mph47%29.95 "HgN/A
6:20 PM75 °FPassing clouds.8 mph47%29.95 "HgN/A
5:50 PM77 °FPassing clouds.7 mph47%29.95 "HgN/A
5:20 PM79 °FPassing clouds.5 mph42%29.95 "HgN/A
4:50 PM79 °FPassing clouds.6 mph45%29.95 "HgN/A
4:20 PM79 °FScattered clouds.8 mph48%29.95 "HgN/A
3:50 PM79 °FScattered clouds.7 mph48%29.95 "HgN/A
3:20 PM77 °FScattered clouds.7 mph51%29.95 "HgN/A
2:50 PM75 °FScattered clouds.9 mph54%29.98 "HgN/A
2:20 PM75 °FScattered clouds.8 mph57%29.98 "HgN/A
1:50 PM75 °FScattered clouds.7 mph57%29.98 "HgN/A
1:20 PM73 °FBroken clouds.9 mph65%29.98 "HgN/A
12:50 PM73 °FPartly sunny.7 mph69%29.98 "HgN/A
12:20 PM72 °FPartly sunny.6 mph73%30.01 "HgN/A
11:50 AM70 °FPartly sunny.7 mph78%30.01 "HgN/A
11:20 AM72 °FScattered clouds.6 mph73%30.01 "HgN/A
10:50 AM70 °FScattered clouds.6 mph78%30.01 "HgN/A
10:20 AM70 °FPassing clouds.3 mph78%30.01 "HgN/A
9:50 AM66 °FPassing clouds.5 mph83%30.01 "HgN/A
9:20 AM64 °FScattered clouds.7 mph88%30.01 "HgN/A
8:50 AM63 °FPartly sunny.8 mph94%30.04 "HgN/A
8:20 AM61 °FSunny.7 mph94%30.04 "Hg10 mi
7:50 AM61 °FSunny.6 mph94%30.04 "Hg10 mi
7:20 AM61 °FPassing clouds.6 mph94%30.04 "HgN/A
6:50 AM61 °FLight rain. Partly sunny.5 mph94%30.04 "HgN/A
Weather by CustomWeather, © 2016

See weather overviewHow to use our weather pages